Joplin, MO

4:18 PM CDT on April 26, 2018 (GMT -0500)
Joplin Regional

Weather History for KJLN - May, 2013

Change the Weather History Date:

Tuesday, May 7, 2013

  Actual Average Record
Temperature  
Mean Temperature 59 °F 65 °F  
Max Temperature 76 °F 76 °F 88 °F (1962)
Min Temperature 41 °F 54 °F 36 °F (1976)
Degree Days  
Heating Degree Days 6 3  
Month to date heating degree days 105 25  
Since 1 July heating degree days 4209 4028  
Cooling Degree Days 0 3  
Month to date cooling degree days 5 17  
Year to date cooling degree days 35 71  
Growing Degree Days 8 (Base 50)    
Moisture  
Dew Point 48 °F    
Average Humidity 72    
Maximum Humidity 100    
Minimum Humidity 44    
Precipitation  
Precipitation 0.00 in 0.19 in 5.71 in (2008)
Month to date precipitation 1.33 1.36  
Year to date precipitation 15.83 13.60  
Snow  
Snow 0.00 in - - ()
Month to date snowfall 0.0  
Snow Depth 0.00 in    
Sea Level Pressure  
Sea Level Pressure 30.06 in    
Wind  
Wind Speed 2 mph (SSE)    
Max Wind Speed 7 mph    
Max Gust Speed 12 mph    
Visibility 4 miles    
Events Fog    
T = Trace of Precipitation, MM = Missing Value Source: NWS Daily Summary

Daily Weather History Graph

Daily Weather History Graph

Search for Another Location

Airport or City:

Astronomy

May. 07, 2013 Rise Set
Actual Time 6:16 AM CDT 8:12 PM CDT
Civil Twilight 5:48 AM CDT 8:41 PM CDT
Nautical Twilight 5:13 AM CDT 9:16 PM CDT
Astronomical Twilight 4:36 AM CDT 9:53 PM CDT
Moon 4:48 AM CDT (5/7) 6:15 PM CDT (5/7)
Length of Visible Light 14h 53m
Length of Day
13h 56m
Waning Crescent, 5% of the Moon is Illuminated
May 7
Waning Crescent
May 9
New
May 17
First Quarter
May 24
Full
May 31
Last Quarter

Hourly Weather History & Observations

Time (CDT) Temp. Windchill Dew Point Humidity Pressure Visibility Wind Dir Wind Speed Gust Speed Precip Events Conditions
12:06 AM 48.2 °F - 48.2 °F 100% 30.09 in 2.0 mi SSW 3.5 mph - N/A   Clear
12:14 AM 46.4 °F 45.2 °F 46.4 °F 100% 30.09 in 1.8 mi SSW 3.5 mph - N/A   Clear
12:22 AM 48.2 °F - 46.4 °F 93% 30.09 in 2.5 mi SSW 4.6 mph - N/A   Clear
12:29 AM 46.4 °F - 46.4 °F 100% 30.09 in 3.0 mi Calm Calm - N/A   Clear
12:40 AM 46.4 °F - 46.4 °F 100% 30.09 in 2.5 mi Calm Calm - N/A   Clear
12:53 AM 48.9 °F - 46.9 °F 93% 30.09 in 1.0 mi Calm Calm - N/A   Clear
1:12 AM 48.2 °F - 46.4 °F 93% 30.08 in 2.0 mi Calm Calm - N/A   Clear
1:26 AM 46.4 °F - 46.4 °F 100% 30.08 in 0.8 mi Calm Calm - N/A   Clear
1:33 AM 46.4 °F - 44.6 °F 93% 30.08 in 0.2 mi Calm Calm - N/A Fog Fog
1:40 AM 46.4 °F - 44.6 °F 93% 30.07 in 0.2 mi Calm Calm - N/A Fog Fog
1:53 AM 46.9 °F - 46.0 °F 97% 30.07 in 0.8 mi Calm Calm - N/A   Mist
1:56 AM 46.4 °F - 46.4 °F 100% 30.07 in 0.5 mi Calm Calm - N/A Fog Fog
2:09 AM 44.6 °F - 44.6 °F 100% 30.07 in 0.2 mi Calm Calm - N/A Fog Fog
2:18 AM 46.4 °F - 44.6 °F 93% 30.06 in 1.0 mi Calm Calm - N/A   Mist
2:24 AM 44.6 °F - 44.6 °F 100% 30.06 in 0.5 mi Calm Calm - N/A Fog Fog
2:40 AM 44.6 °F - 44.6 °F 100% 30.05 in 0.8 mi Calm Calm - N/A   Clear
2:53 AM 46.0 °F 44.8 °F 44.1 °F 93% 30.05 in 1.5 mi East 3.5 mph - N/A   Clear
3:14 AM 44.6 °F - 44.6 °F 100% 30.05 in 0.8 mi Calm Calm - N/A   Clear
3:22 AM 44.6 °F - 44.6 °F 100% 30.05 in 0.5 mi Calm Calm - N/A Fog Fog
3:33 AM 44.6 °F - 44.6 °F 100% 30.05 in 1.0 mi Calm Calm - N/A   Clear
3:42 AM 44.6 °F - 44.6 °F 100% 30.05 in 0.8 mi Calm Calm - N/A   Clear
3:51 AM 46.4 °F - 44.6 °F 93% 30.05 in 1.5 mi Calm Calm - N/A   Clear
3:53 AM 45.0 °F - 45.0 °F 100% 30.05 in 1.5 mi Calm Calm - N/A   Clear
4:13 AM 44.6 °F - 42.8 °F 93% 30.05 in 3.0 mi Calm Calm - N/A   Clear
4:53 AM 43.0 °F - 42.1 °F 97% 30.05 in 4.0 mi Calm Calm - N/A   Clear
5:08 AM 42.8 °F 41.1 °F 41.0 °F 93% 30.05 in 1.5 mi ESE 3.5 mph - N/A   Clear
5:21 AM 42.8 °F 41.1 °F 42.8 °F 100% 30.06 in 3.0 mi SSE 3.5 mph - N/A   Clear
5:53 AM 42.1 °F - 42.1 °F 100% 30.06 in 2.0 mi Calm Calm - N/A   Clear
6:17 AM 42.8 °F - 42.8 °F 100% 30.07 in 1.0 mi Calm Calm - N/A   Mist
6:33 AM 42.8 °F - 42.8 °F 100% 30.08 in 0.2 mi Calm Calm - N/A Fog Fog
6:53 AM 43.0 °F - 42.1 °F 97% 30.08 in 0.2 mi Calm Calm - N/A Fog Fog
7:53 AM 48.0 °F - 46.9 °F 96% 30.09 in 0.2 mi Calm Calm - N/A Fog Fog
8:53 AM 52.0 °F - 52.0 °F 100% 30.11 in 1.0 mi Calm Calm - N/A   Mist
9:05 AM 53.6 °F - 53.6 °F 100% 30.11 in 2.5 mi Calm Calm - N/A   Mostly Cloudy
9:13 AM 53.6 °F - 53.6 °F 100% 30.11 in 4.0 mi Calm Calm - N/A   Mostly Cloudy
9:20 AM 55.4 °F - 53.6 °F 94% 30.11 in 4.0 mi Calm Calm - N/A   Partly Cloudy
9:53 AM 59.0 °F - 55.9 °F 90% 30.11 in 7.0 mi Calm Calm - N/A   Clear
10:53 AM 66.0 °F - 54.0 °F 65% 30.10 in 10.0 mi East 4.6 mph - N/A   Clear
11:53 AM 68.0 °F - 54.0 °F 61% 30.10 in 10.0 mi Calm Calm - N/A   Clear
12:53 PM 72.0 °F - 52.0 °F 49% 30.08 in 10.0 mi Calm Calm - N/A   Clear
1:53 PM 73.0 °F - 52.0 °F 48% 30.06 in 10.0 mi South 4.6 mph - N/A   Clear
2:53 PM 72.0 °F - 50.0 °F 46% 30.04 in 10.0 mi Calm Calm - N/A   Clear
3:53 PM 73.0 °F - 53.1 °F 49% 30.02 in 10.0 mi North 4.6 mph - N/A   Clear
4:53 PM 73.9 °F - 50.0 °F 43% 30.00 in 10.0 mi Calm Calm - N/A   Partly Cloudy
5:53 PM 73.9 °F - 51.1 °F 45% 29.99 in 10.0 mi Variable 3.5 mph - N/A   Partly Cloudy
6:53 PM 73.0 °F - 52.0 °F 48% 29.99 in 10.0 mi SSE 4.6 mph - N/A   Scattered Clouds
7:53 PM 71.1 °F - 52.0 °F 51% 29.98 in 10.0 mi Calm Calm - N/A   Clear
8:53 PM 64.0 °F - 52.0 °F 65% 29.99 in 10.0 mi Calm Calm - N/A   Clear
9:53 PM 57.9 °F - 52.0 °F 81% 30.00 in 10.0 mi Calm Calm - N/A   Partly Cloudy
10:53 PM 59.0 °F - 53.1 °F 81% 30.01 in 10.0 mi Calm Calm - N/A   Scattered Clouds
11:53 PM 61.0 °F - 51.1 °F 70% 29.99 in 10.0 mi SE 4.6 mph - N/A   Clear